User: anonymous   Login
Location: Yellowknife
(62.4500°N, 114.3500°W)
Time: 14:27:27
(UTC-06:00)
Language:

Envisat - Orbit

View from above orbital plane
View from above orbital plane
View from above satellite
View from above satellite

Ground track
Ground track

The orbit data is extracted from the following two-line orbital elements,

1 27386U 02009A   24197.63197294  .00000297  00000-0  11060-3 0  9990
2 27386  98.2836 157.7345 0001399  85.8614  87.7062 14.38606253172592
Epoch (UTC): 15 July 2024 15:10:02
Eccentricity: 0.0001399
inclination: 98.2836°
perigee height: 762 km
apogee height: 764 km
right ascension of ascending node: 157.7345°
argument of perigee: 85.8614°
revolutions per day: 14.38606253
mean anomaly at epoch: 87.7062°
orbit number at epoch: 17259

The dashed part of the orbit path shows where the satellite is in the earth's shadow,  

DLR